#timestamp,LO_Frequency,Hit 
1498327215.6,286047141.0,N
1498327235.4,286047146.7,N
1498327255.2,286047137.9,N
1498327275.0,286047133.3,N
1498327276.0,286047133.3,N
1498327295.8,286047137.5,N
1498327315.6,286047142.1,N
1498327335.4,286047144.7,N
1498327355.3,286047143.3,N
1498327375.1,286047137.6,N
1498327395.8,286047136.9,N
1498327415.7,286047134.8,N
1498327435.5,286047136.6,N
1498327455.3,286047140.0,N
1498327475.2,286047139.1,N
1498327495.9,286047142.7,N
1498327515.7,286047139.3,N
1498327535.6,286047145.0,N
1498327555.4,286047156.3,N
1498327575.2,286047156.5,N
1498327595.0,286047153.8,N
1498327595.9,286047153.8,N
1498327615.8,286047147.8,N
1498327635.6,286047145.6,N
1498327655.4,286047151.0,N
1498327675.3,286047151.2,N
1498327695.1,286047147.9,N
1498327715.8,286047149.2,N
1498327735.7,286047150.3,N
1498327755.5,286047142.8,N
1498327775.3,286047140.5,N
1498327795.2,286047146.0,N
1498327815.9,286047151.1,N
1498327835.7,286047149.3,N
1498327855.5,286047151.1,N
1498327875.4,286047152.2,N
1498327895.2,286047161.8,N
1498327915.0,286047164.3,N
1498327915.9,286047164.3,N
1498327935.8,286047163.5,N
1498327955.6,286047170.3,N
1498327975.4,286047166.5,N
1498327995.3,286047174.3,N
1498328015.1,286047177.8,N
1498328016.0,286047177.8,N
1498328035.8,286047177.1,N
1498328055.7,286047176.7,N
1498328075.5,286047176.3,N
1498328095.3,286047173.8,N
1498328115.2,286047169.3,N
1498328135.9,286047166.5,N
1498328155.7,286047166.8,N
1498328175.6,286047170.5,N
1498328195.4,286047176.8,N
1498328215.2,286047179.7,N
1498328235.0,286047174.3,N
1498328235.9,286047174.3,N
1498328255.8,286047178.8,N
1498328275.6,286047179.8,N
1498328295.4,286047180.4,N
1498328315.3,286047175.7,N
1498328335.1,286047184.1,N
1498328336.0,286047184.1,N
1498328355.8,286047188.8,Y
1498328375.7,286047034.3,N
1498328395.5,286047030.1,N
1498328415.3,286047037.7,N
1498328435.2,286047034.6,N
1498328455.9,286047025.1,N
1498328475.7,286047029.3,N
1498328495.6,286047024.3,N
1498328515.4,286047024.2,N
1498328535.2,286047022.0,N
1498328555.0,286047019.5,N
1498328556.0,286047019.5,N
1498328575.8,286047026.6,N
1498328595.6,286047028.2,N
1498328615.4,286047024.7,N
1498328635.3,286047027.0,N
1498328655.1,286047030.3,N
1498328675.8,286047033.3,N
1498328695.7,286047033.7,N
1498328715.5,286047038.5,N
1498328735.3,286047039.6,N
1498328755.2,286047028.5,N
1498328775.9,286047025.6,N
1498328795.7,286047029.8,N
1498328815.6,286047029.4,N
1498328835.4,286047023.7,N
1498328855.2,286047020.6,N
1498328875.1,286047020.8,N
1498328876.0,286047020.8,N
1498328895.8,286047029.2,N
1498328915.6,286047032.3,N
1498328935.4,286047033.1,N
1498328955.3,286047029.3,N
1498328975.1,286047029.8,N
1498328995.8,286047033.8,N
1498329015.7,286047038.5,N
1498329035.5,286047044.0,N
1498329055.3,286047040.8,N
1498329075.2,286047037.4,N
1498329095.9,286047035.0,N
1498329115.7,286047041.7,N
1498329135.6,286047050.4,N
1498329155.4,286047047.7,N
1498329175.2,286047042.9,N
1498329195.0,286047045.0,N
1498329196.0,286047045.0,N
1498329215.8,286047047.2,N
1498329235.6,286047047.1,N
1498329255.4,286047043.8,N
1498329275.3,286047042.7,N
1498329295.1,286047041.6,N
1498329315.8,286047042.6,N
1498329335.7,286047038.8,N
1498329355.5,286047040.8,N
1498329375.3,286047042.3,N
1498329395.2,286047040.4,N
1498329415.9,286047036.9,N
1498329435.7,286047039.9,N
1498329455.5,286047043.0,N
1498329475.4,286047049.0,N
1498329495.2,286047053.9,N
1498329515.0,286047054.3,N
1498329515.9,286047054.3,N
1498329535.8,286047068.9,N
1498329555.6,286047063.8,N
1498329575.4,286047063.4,N
1498329595.3,286047057.1,N
1498329615.1,286047056.7,N
1498329635.8,286047052.7,N
1498329655.7,286047056.8,N
1498329675.5,286047059.8,N
1498329695.3,286047067.0,N
1498329715.2,286047069.4,N
1498329735.9,286047062.8,N
1498329755.7,286047067.1,N
1498329775.5,286047062.5,N
1498329795.4,286047062.2,N
1498329815.2,286047064.1,N
1498329835.0,286047062.6,N
1498329835.9,286047062.6,N
1498329855.8,286047063.5,N
1498329875.6,286047059.1,N
1498329895.4,286047063.3,N
1498329915.3,286047062.2,N
1498329935.1,286047067.9,N
1498329936.0,286047067.9,N
1498329955.8,286047061.6,N
1498329975.7,286047056.2,N
1498329995.5,286047066.3,N
1498330015.3,286047075.1,N
1498330035.2,286047072.3,N
1498330055.9,286047071.5,N
1498330075.7,286047077.2,N
1498330095.5,286047076.7,N
1498330115.4,286047087.5,N
1498330135.2,286047092.1,N
1498330155.0,286047089.4,N
1498330155.9,286047089.4,N
1498330175.8,286047090.0,N
1498330195.6,286047093.3,N
1498330215.4,286047095.3,N
1498330235.3,286047096.3,N
1498330255.1,286047092.4,N
1498330256.0,286047092.4,N
1498330275.8,286047085.1,N
1498330295.7,286047090.3,N
1498330315.5,286047085.7,N
1498330335.3,286047085.4,N
1498330355.2,286047090.4,N
1498330375.9,286047090.4,N
1498330395.7,286047087.3,N
1498330415.5,286047089.5,N
1498330435.4,286047100.0,N
1498330455.2,286047096.3,N
1498330475.0,286047093.8,N
1498330475.9,286047093.8,N
1498330495.8,286047096.5,N
1498330515.6,286047102.3,N
1498330535.4,286047111.1,N
1498330555.3,286047101.6,N
1498330575.1,286047096.4,N
1498330576.0,286047096.4,N
1498330595.8,286047092.8,N
1498330615.7,286047097.8,N
1498330635.5,286047099.6,N
1498330655.3,286047103.1,N
1498330675.2,286047101.4,N
1498330695.9,286047109.6,N
1498330715.7,286047114.5,N
1498330735.5,286047107.6,N
1498330755.4,286047106.4,N
1498330775.2,286047110.2,N
1498330795.0,286047108.3,N
1498330795.9,286047108.3,N
